<?xml version='1.0' encoding='UTF-8'?>
<gpx xmlns="http://www.topografix.com/GPX/1/1" creator="www.balnam.be" version="1.1" xmlns:xsi="http://www.w3.org/2001/XMLSchema-instance" xsi:schemaLocation="http://www.topografix.com/GPX/1/1 http://www.topografix.com/GPX/1/1/gpx.xsd">
<trk>
<name>lfabo1</name>
<cmt>r</cmt>
<desc>Borlez Chemin n°1 Rue Georges Berotte / Rue de la Campagne dèl Pîre</desc>
<link href="https://chemins.be/borlez/chemin/1"/><trkseg>
<trkpt lat="50.625261" lon="5.228487"><time>2026-05-02T15:52:48Z</time></trkpt>
<trkpt lat="50.625915" lon="5.231463"><time>2026-05-02T16:02:48Z</time></trkpt>
</trkseg></trk>
<trk>
<name>lfabo1</name>
<cmt>s</cmt>
<desc>Borlez Chemin n°1 Rue Georges Berotte / Rue de la Campagne dèl Pîre</desc>
<link href="https://chemins.be/borlez/chemin/1"/><trkseg>
<trkpt lat="50.625915" lon="5.231463"><time>2026-05-02T16:02:48Z</time></trkpt>
<trkpt lat="50.627203" lon="5.236455"><time>2026-05-02T16:12:48Z</time></trkpt>
<trkpt lat="50.626931" lon="5.239316"><time>2026-05-02T16:22:48Z</time></trkpt>
<trkpt lat="50.627189" lon="5.241029"><time>2026-05-02T16:32:48Z</time></trkpt>
</trkseg></trk>
<trk>
<name>lfabo1</name>
<cmt>r</cmt>
<desc>Borlez Chemin n°1 Rue Georges Berotte / Rue de la Campagne dèl Pîre</desc>
<link href="https://chemins.be/borlez/chemin/1"/><trkseg>
<trkpt lat="50.627189" lon="5.241029"><time>2026-05-02T16:32:48Z</time></trkpt>
<trkpt lat="50.627586" lon="5.242937"><time>2026-05-02T16:42:48Z</time></trkpt>
<trkpt lat="50.628770" lon="5.245505"><time>2026-05-02T16:52:48Z</time></trkpt>
<trkpt lat="50.630362" lon="5.248581"><time>2026-05-02T17:02:48Z</time></trkpt>
<trkpt lat="50.632041" lon="5.250261"><time>2026-05-02T17:12:48Z</time></trkpt>
</trkseg></trk>
<trk>
<name>lfabo1</name>
<cmt>v</cmt>
<desc>Borlez Chemin n°1 Rue Georges Berotte / Rue de la Campagne dèl Pîre</desc>
<link href="https://chemins.be/borlez/chemin/1"/><trkseg>
<trkpt lat="50.632041" lon="5.250261"><time>2026-05-02T17:12:48Z</time></trkpt>
<trkpt lat="50.632740" lon="5.252028"><time>2026-05-02T17:22:48Z</time></trkpt>
<trkpt lat="50.633316" lon="5.254217"><time>2026-05-02T17:32:48Z</time></trkpt>
<trkpt lat="50.633878" lon="5.255540"><time>2026-05-02T17:42:48Z</time></trkpt>
<trkpt lat="50.637240" lon="5.261434"><time>2026-05-02T17:52:48Z</time></trkpt>
</trkseg>
</trk>
<trk>
<name>lfabo11</name>
<cmt>d</cmt>
<desc>Borlez Sentier n°11 </desc>
<link href="https://chemins.be/borlez/sentier/11"/><trkseg>
<trkpt lat="50.632402" lon="5.245872"><time>2026-05-02T15:52:48Z</time></trkpt>
<trkpt lat="50.632323" lon="5.246144"><time>2026-05-02T16:02:48Z</time></trkpt>
</trkseg></trk>
<trk>
<name>lfabo11</name>
<cmt>q</cmt>
<desc>Borlez Sentier n°11 </desc>
<link href="https://chemins.be/borlez/sentier/11"/><trkseg>
<trkpt lat="50.632323" lon="5.246144"><time>2026-05-02T16:02:48Z</time></trkpt>
<trkpt lat="50.632160" lon="5.246682"><time>2026-05-02T16:12:48Z</time></trkpt>
<trkpt lat="50.631520" lon="5.247421"><time>2026-05-02T16:22:48Z</time></trkpt>
<trkpt lat="50.630269" lon="5.248335"><time>2026-05-02T16:32:48Z</time></trkpt>
</trkseg></trk>
<trk>
<name>lfabo11</name>
<cmt>d</cmt>
<desc>Borlez Sentier n°11 </desc>
<link href="https://chemins.be/borlez/sentier/11"/><trkseg>
<trkpt lat="50.630269" lon="5.248335"><time>2026-05-02T16:32:48Z</time></trkpt>
<trkpt lat="50.629337" lon="5.249249"><time>2026-05-02T16:42:48Z</time></trkpt>
</trkseg></trk>
<trk>
<name>lfabo11</name>
<cmt>q</cmt>
<desc>Borlez Sentier n°11 </desc>
<link href="https://chemins.be/borlez/sentier/11"/><trkseg>
<trkpt lat="50.629337" lon="5.249249"><time>2026-05-02T16:42:48Z</time></trkpt>
<trkpt lat="50.628212" lon="5.251278"><time>2026-05-02T16:52:48Z</time></trkpt>
<trkpt lat="50.627944" lon="5.251702"><time>2026-05-02T17:02:48Z</time></trkpt>
<trkpt lat="50.627645" lon="5.252172"><time>2026-05-02T17:12:48Z</time></trkpt>
</trkseg>
</trk>
<trk>
<name>lfabo12</name>
<cmt>s</cmt>
<desc>Borlez Sentier n°12 </desc>
<link href="https://chemins.be/borlez/sentier/12"/><trkseg>
<trkpt lat="50.629508" lon="5.244131"><time>2026-05-02T15:52:48Z</time></trkpt>
<trkpt lat="50.630486" lon="5.243877"><time>2026-05-02T16:02:48Z</time></trkpt>
<trkpt lat="50.631883" lon="5.241040"><time>2026-05-02T16:12:48Z</time></trkpt>
<trkpt lat="50.631864" lon="5.237192"><time>2026-05-02T16:22:48Z</time></trkpt>
</trkseg>
</trk>
<trk>
<name>lfabo12bis</name>
<cmt>s</cmt>
<desc>Borlez Sentier n°12bis </desc>
<link href="https://chemins.be/borlez/sentier/12bis"/><trkseg>
<trkpt lat="50.632088" lon="5.240720"><time>2026-05-02T15:52:48Z</time></trkpt>
<trkpt lat="50.631913" lon="5.241039"><time>2026-05-02T16:02:48Z</time></trkpt>
</trkseg>
</trk>
<trk>
<name>lfabo13</name>
<cmt>q</cmt>
<desc>Borlez Sentier n°13 </desc>
<link href="https://chemins.be/borlez/sentier/13"/><trkseg>
<trkpt lat="50.633349" lon="5.245616"><time>2026-05-02T15:52:48Z</time></trkpt>
<trkpt lat="50.633661" lon="5.245660"><time>2026-05-02T16:02:48Z</time></trkpt>
<trkpt lat="50.635040" lon="5.245413"><time>2026-05-02T16:12:48Z</time></trkpt>
<trkpt lat="50.635282" lon="5.245256"><time>2026-05-02T16:22:48Z</time></trkpt>
</trkseg></trk>
<trk>
<name>lfabo13</name>
<cmt>r</cmt>
<desc>Borlez Sentier n°13 </desc>
<link href="https://chemins.be/borlez/sentier/13"/><trkseg>
<trkpt lat="50.635282" lon="5.245256"><time>2026-05-02T16:22:48Z</time></trkpt>
<trkpt lat="50.635084" lon="5.244873"><time>2026-05-02T16:32:48Z</time></trkpt>
</trkseg></trk>
<trk>
<name>lfabo13</name>
<cmt>v</cmt>
<desc>Borlez Sentier n°13 </desc>
<link href="https://chemins.be/borlez/sentier/13"/><trkseg>
<trkpt lat="50.635084" lon="5.244873"><time>2026-05-02T16:32:48Z</time></trkpt>
<trkpt lat="50.635545" lon="5.244344"><time>2026-05-02T16:42:48Z</time></trkpt>
<trkpt lat="50.635731" lon="5.244251"><time>2026-05-02T16:52:48Z</time></trkpt>
<trkpt lat="50.636199" lon="5.243736"><time>2026-05-02T17:02:48Z</time></trkpt>
</trkseg></trk>
<trk>
<name>lfabo13</name>
<cmt>q</cmt>
<desc>Borlez Sentier n°13 </desc>
<link href="https://chemins.be/borlez/sentier/13"/><trkseg>
<trkpt lat="50.636199" lon="5.243736"><time>2026-05-02T17:02:48Z</time></trkpt>
<trkpt lat="50.635473" lon="5.239431"><time>2026-05-02T17:12:48Z</time></trkpt>
<trkpt lat="50.635473" lon="5.238472"><time>2026-05-02T17:22:48Z</time></trkpt>
</trkseg>
</trk>
<trk>
<name>lfabo14</name>
<cmt>q</cmt>
<desc>Borlez Sentier n°14 </desc>
<link href="https://chemins.be/borlez/sentier/14"/><trkseg>
<trkpt lat="50.626122" lon="5.248450"><time>2026-05-02T15:52:48Z</time></trkpt>
<trkpt lat="50.625958" lon="5.248783"><time>2026-05-02T16:02:48Z</time></trkpt>
<trkpt lat="50.625026" lon="5.249244"><time>2026-05-02T16:12:48Z</time></trkpt>
</trkseg>
</trk>
<trk>
<name>lfabo15</name>
<cmt>q</cmt>
<desc>Borlez Sentier n°15 </desc>
<link href="https://chemins.be/borlez/sentier/15"/><trkseg>
<trkpt lat="50.627566" lon="5.242645"><time>2026-05-02T15:52:48Z</time></trkpt>
<trkpt lat="50.627641" lon="5.242627"><time>2026-05-02T16:02:48Z</time></trkpt>
<trkpt lat="50.629192" lon="5.244558"><time>2026-05-02T16:12:48Z</time></trkpt>
</trkseg>
</trk>
<trk>
<name>lfabo16</name>
<cmt>v</cmt>
<desc>Borlez Sentier n°16 </desc>
<link href="https://chemins.be/borlez/sentier/16"/><trkseg>
<trkpt lat="50.629430" lon="5.256035"><time>2026-05-02T15:52:48Z</time></trkpt>
<trkpt lat="50.631104" lon="5.257924"><time>2026-05-02T16:02:48Z</time></trkpt>
<trkpt lat="50.632696" lon="5.260262"><time>2026-05-02T16:12:48Z</time></trkpt>
<trkpt lat="50.634234" lon="5.262387"><time>2026-05-02T16:22:48Z</time></trkpt>
</trkseg></trk>
<trk>
<name>lfabo16</name>
<cmt>q</cmt>
<desc>Borlez Sentier n°16 </desc>
<link href="https://chemins.be/borlez/sentier/16"/><trkseg>
<trkpt lat="50.634234" lon="5.262387"><time>2026-05-02T16:22:48Z</time></trkpt>
<trkpt lat="50.635908" lon="5.264425"><time>2026-05-02T16:32:48Z</time></trkpt>
</trkseg>
</trk>
<trk>
<name>lfabo2</name>
<cmt>r</cmt>
<desc>Borlez Chemin n°2 Rue Émile Vandervelde</desc>
<link href="https://chemins.be/borlez/chemin/2"/><trkseg>
<trkpt lat="50.628914" lon="5.245224"><time>2026-05-02T15:52:48Z</time></trkpt>
<trkpt lat="50.628032" lon="5.247624"><time>2026-05-02T16:02:48Z</time></trkpt>
<trkpt lat="50.626406" lon="5.248711"><time>2026-05-02T16:12:48Z</time></trkpt>
<trkpt lat="50.624863" lon="5.247450"><time>2026-05-02T16:22:48Z</time></trkpt>
<trkpt lat="50.624446" lon="5.247126"><time>2026-05-02T16:32:48Z</time></trkpt>
</trkseg></trk>
<trk>
<name>lfabo2</name>
<cmt>v</cmt>
<desc>Borlez Chemin n°2 Rue Émile Vandervelde</desc>
<link href="https://chemins.be/borlez/chemin/2"/><trkseg>
<trkpt lat="50.624446" lon="5.247126"><time>2026-05-02T16:32:48Z</time></trkpt>
<trkpt lat="50.623877" lon="5.246715"><time>2026-05-02T16:42:48Z</time></trkpt>
<trkpt lat="50.623200" lon="5.246810"><time>2026-05-02T16:52:48Z</time></trkpt>
</trkseg>
</trk>
<trk>
<name>lfabo5</name>
<cmt>v</cmt>
<desc>Borlez Chemin n°5 Sentier du Corainon</desc>
<link href="https://chemins.be/borlez/chemin/5"/><trkseg>
<trkpt lat="50.631000" lon="5.239170"><time>2026-05-02T15:52:48Z</time></trkpt>
<trkpt lat="50.631878" lon="5.237193"><time>2026-05-02T16:02:48Z</time></trkpt>
<trkpt lat="50.632494" lon="5.235310"><time>2026-05-02T16:12:48Z</time></trkpt>
</trkseg>
</trk>
<trk>
<name>lfabo7</name>
<cmt>v</cmt>
<desc>Borlez Chemin n°7 Chemin de Godliva</desc>
<link href="https://chemins.be/borlez/chemin/7"/><trkseg>
<trkpt lat="50.627582" lon="5.242909"><time>2026-05-02T15:52:48Z</time></trkpt>
<trkpt lat="50.625712" lon="5.241786"><time>2026-05-02T16:02:48Z</time></trkpt>
<trkpt lat="50.624274" lon="5.240417"><time>2026-05-02T16:12:48Z</time></trkpt>
</trkseg>
</trk>
<trk>
<name>lfabo8</name>
<cmt>v</cmt>
<desc>Borlez Chemin n°8 </desc>
<link href="https://chemins.be/borlez/chemin/8"/><trkseg>
<trkpt lat="50.628404" lon="5.249610"><time>2026-05-02T15:52:48Z</time></trkpt>
<trkpt lat="50.628261" lon="5.249551"><time>2026-05-02T16:02:48Z</time></trkpt>
<trkpt lat="50.628135" lon="5.249506"><time>2026-05-02T16:12:48Z</time></trkpt>
<trkpt lat="50.628045" lon="5.249476"><time>2026-05-02T16:22:48Z</time></trkpt>
<trkpt lat="50.627722" lon="5.249400"><time>2026-05-02T16:32:48Z</time></trkpt>
<trkpt lat="50.627032" lon="5.249189"><time>2026-05-02T16:42:48Z</time></trkpt>
<trkpt lat="50.626646" lon="5.249026"><time>2026-05-02T16:52:48Z</time></trkpt>
<trkpt lat="50.626404" lon="5.248894"><time>2026-05-02T17:02:48Z</time></trkpt>
<trkpt lat="50.626289" lon="5.248737"><time>2026-05-02T17:12:48Z</time></trkpt>
</trkseg>
</trk>
<trk>
<name>lfabo9</name>
<cmt>s</cmt>
<desc>Borlez Chemin n°9 </desc>
<link href="https://chemins.be/borlez/chemin/9"/><trkseg>
<trkpt lat="50.640497" lon="5.255449"><time>2026-05-02T15:52:48Z</time></trkpt>
<trkpt lat="50.640309" lon="5.249366"><time>2026-05-02T16:02:48Z</time></trkpt>
<trkpt lat="50.640041" lon="5.245166"><time>2026-05-02T16:12:48Z</time></trkpt>
</trkseg>
</trk>
<trk>
<name>lfaboi1</name>
<cmt>q</cmt>
<desc>Borlez Chemin n°i1 </desc>
<link href="https://chemins.be/borlez/chemin/i1"/><trkseg>
<trkpt lat="50.629685" lon="5.253000"><time>2026-05-02T15:52:48Z</time></trkpt>
<trkpt lat="50.628203" lon="5.251363"><time>2026-05-02T16:02:48Z</time></trkpt>
</trkseg>
</trk>
</gpx>